New Richmond, WI

7:03 AM CDT on August 18, 2017 (GMT -0500)
New Richmond Municipal

Weather History for KRNH - July, 2013

Change the Weather History Date:

Wednesday, July 17, 2013

  Actual Average (KSTP) Record (KSTP)
Temperature  
Mean Temperature 82 °F -  
Max Temperature 91 °F 80 °F 96 °F (2005)
Min Temperature 72 °F 62 °F 55 °F (2014)
Cooling Degree Days 16    
Growing Degree Days 32 (Base 50)    
Moisture  
Dew Point 68 °F    
Average Humidity 66    
Maximum Humidity 94    
Minimum Humidity 39    
Precipitation  
Precipitation 0.00 in - - ()
Sea Level Pressure  
Sea Level Pressure 30.22 in    
Wind  
Wind Speed 5 mph (SW)    
Max Wind Speed 13 mph    
Max Gust Speed 18 mph    
Visibility 10 miles    
Events      
Averages and records for this station are not official NWS values.
T = Trace of Precipitation, MM = Missing Value Source: NWS Daily Summary

Daily Weather History Graph

Daily Weather History Graph

Search for Another Location

Airport or City:

Trip Planner

Search our weather history database for the weather conditions in past years. The results will help you decide how hot, cold, wet, or windy it might be!

Date:

Astronomy

Jul. 17, 2013 Rise Set
Actual Time 5:39 AM CDT 8:52 PM CDT
Civil Twilight 5:03 AM CDT 9:28 PM CDT
Nautical Twilight 4:17 AM CDT 10:14 PM CDT
Astronomical Twilight 3:19 AM CDT 11:11 PM CDT
Moon 3:38 PM CDT (7/17) 12:52 AM CDT (7/17)
Length of Visible Light 16h 24m
Length of Day
15h 13m
Waxing Gibbous, 67% of the Moon is Illuminated
Jul 17
Waxing Gibbous
Jul 22
Full
Jul 29
Last Quarter
Aug 6
New
Aug 14
First Quarter

Hourly Weather History & Observations

Time (CDT) Temp. Heat Index Dew Point Humidity Pressure Visibility Wind Dir Wind Speed Gust Speed Precip Events Conditions
12:15 AM 74.3 °F - 71.2 °F 90% 30.24 in 10.0 mi Calm Calm - N/A   Clear
12:35 AM 73.9 °F - 70.7 °F 90% 30.24 in 10.0 mi Calm Calm - N/A   Clear
12:55 AM 74.1 °F - 70.5 °F 88% 30.24 in 10.0 mi South 3.5 mph - N/A   Clear
1:15 AM 73.4 °F - 70.5 °F 91% 30.24 in 10.0 mi SSW 4.6 mph - N/A   Clear
1:35 AM 74.3 °F - 71.1 °F 90% 30.24 in 10.0 mi SW 3.5 mph - N/A   Clear
1:55 AM 73.6 °F - 70.7 °F 91% 30.24 in 10.0 mi SSW 4.6 mph - N/A   Clear
2:15 AM 73.6 °F - 70.7 °F 91% 30.24 in 10.0 mi SSW 5.8 mph - N/A   Clear
2:35 AM 73.6 °F - 70.5 °F 90% 30.24 in 10.0 mi SSW 5.8 mph - N/A   Clear
2:55 AM 73.8 °F - 70.7 °F 90% 30.24 in 10.0 mi SSW 4.6 mph - N/A   Clear
3:15 AM 73.8 °F - 70.7 °F 90% 30.24 in 10.0 mi SSW 5.8 mph - N/A   Clear
3:35 AM 73.6 °F - 70.7 °F 91% 30.24 in 10.0 mi SSW 4.6 mph - N/A   Clear
3:55 AM 73.4 °F - 70.7 °F 91% 30.24 in 10.0 mi SSW 4.6 mph - N/A   Clear
4:15 AM 72.7 °F - 70.3 °F 92% 30.24 in 10.0 mi SSW 4.6 mph - N/A   Clear
4:35 AM 72.5 °F - 70.3 °F 93% 30.25 in 10.0 mi SSW 3.5 mph - N/A   Scattered Clouds
4:55 AM 72.5 °F - 70.7 °F 94% 30.25 in 10.0 mi SSW 4.6 mph - N/A   Mostly Cloudy
5:15 AM 73.0 °F - 70.7 °F 92% 30.25 in 10.0 mi SSW 5.8 mph - N/A   Scattered Clouds
5:35 AM 72.7 °F - 70.7 °F 93% 30.25 in 10.0 mi SSW 4.6 mph - N/A   Scattered Clouds
5:55 AM 72.7 °F - 70.7 °F 93% 30.26 in 10.0 mi SSW 4.6 mph - N/A   Clear
6:15 AM 72.5 °F - 70.7 °F 94% 30.27 in 7.0 mi SSW 4.6 mph - N/A   Clear
6:35 AM 72.7 °F - 70.7 °F 93% 30.27 in 7.0 mi SSW 4.6 mph - N/A   Clear
6:55 AM 74.5 °F - 71.1 °F 89% 30.27 in 10.0 mi SSW 4.6 mph - N/A   Clear
7:15 AM 75.7 °F - 71.2 °F 86% 30.27 in 10.0 mi SSW 4.6 mph - N/A   Clear
7:35 AM 77.0 °F - 70.9 °F 81% 30.27 in 10.0 mi SW 5.8 mph - N/A   Clear
7:55 AM 78.3 °F - 69.6 °F 75% 30.27 in 10.0 mi SW 4.6 mph - N/A   Clear
8:15 AM 79.7 °F - 69.4 °F 71% 30.27 in 10.0 mi SW 5.8 mph - N/A   Clear
8:35 AM 81.1 °F 84.4 °F 69.3 °F 67% 30.27 in 10.0 mi SW 6.9 mph - N/A   Clear
8:55 AM 81.9 °F 85.2 °F 69.3 °F 65% 30.27 in 10.0 mi SW 6.9 mph - N/A   Clear
9:15 AM 83.1 °F 86.3 °F 68.5 °F 61% 30.27 in 10.0 mi SW 9.2 mph - N/A   Clear
9:35 AM 84.0 °F 87.0 °F 68.0 °F 58% 30.27 in 10.0 mi WSW 8.1 mph - N/A   Clear
9:55 AM 85.1 °F 88.5 °F 68.2 °F 57% 30.26 in 10.0 mi SW 8.1 mph - N/A   Clear
10:15 AM 86.0 °F 89.4 °F 68.2 °F 55% 30.26 in 10.0 mi WSW 8.1 mph - N/A   Clear
10:35 AM 86.5 °F 89.6 °F 67.5 °F 53% 30.26 in 10.0 mi WSW 9.2 mph - N/A   Clear
10:55 AM 86.9 °F 89.9 °F 67.3 °F 52% 30.26 in 10.0 mi WSW 11.5 mph 16.1 mph N/A   Scattered Clouds
11:15 AM 87.4 °F 90.1 °F 66.6 °F 50% 30.26 in 10.0 mi West 9.2 mph 16.1 mph N/A   Clear
11:35 AM 88.0 °F 90.7 °F 66.6 °F 49% 30.25 in 10.0 mi West 12.7 mph 16.1 mph N/A   Clear
11:55 AM 88.5 °F 90.8 °F 66.0 °F 47% 30.25 in 10.0 mi WSW 9.2 mph - N/A   Clear
12:15 PM 88.9 °F 91.0 °F 65.7 °F 46% 30.25 in 10.0 mi West 10.4 mph 16.1 mph N/A   Clear
12:35 PM 89.2 °F 90.9 °F 64.4 °F 44% 30.25 in 10.0 mi WSW 12.7 mph 18.4 mph N/A   Clear
12:55 PM 89.8 °F 92.1 °F 65.7 °F 45% 30.25 in 10.0 mi SW 12.7 mph - N/A   Scattered Clouds
1:15 PM 89.6 °F 91.1 °F 64.2 °F 43% 30.24 in 10.0 mi West 10.4 mph - N/A   Mostly Cloudy
1:35 PM 87.6 °F 89.7 °F 65.7 °F 48% 30.24 in 10.0 mi West 10.4 mph - N/A   Mostly Cloudy
1:55 PM 89.1 °F 91.3 °F 66.0 °F 46% 30.24 in 10.0 mi WSW 10.4 mph - N/A   Mostly Cloudy
2:15 PM 90.3 °F 91.9 °F 64.2 °F 42% 30.23 in 10.0 mi WSW 12.7 mph 18.4 mph N/A   Scattered Clouds
2:35 PM 90.7 °F 92.1 °F 64.0 °F 41% 30.22 in 10.0 mi WSW 12.7 mph 16.1 mph N/A   Scattered Clouds
2:55 PM 90.9 °F 92.0 °F 63.1 °F 40% 30.22 in 10.0 mi West 10.4 mph 17.3 mph N/A   Scattered Clouds
3:15 PM 91.0 °F 91.9 °F 63.1 °F 39% 30.21 in 10.0 mi West 11.5 mph - N/A   Scattered Clouds
3:35 PM 90.7 °F 92.1 °F 64.2 °F 41% 30.21 in 10.0 mi WSW 11.5 mph 17.3 mph N/A   Scattered Clouds
3:55 PM 90.5 °F 91.8 °F 64.0 °F 41% 30.20 in 10.0 mi WSW 10.4 mph - N/A   Scattered Clouds
4:15 PM 90.9 °F 92.3 °F 64.2 °F 41% 30.20 in 10.0 mi WSW 12.7 mph 17.3 mph N/A   Clear
4:35 PM 90.7 °F 93.2 °F 65.8 °F 44% 30.20 in 10.0 mi SW 11.5 mph 16.1 mph N/A   Scattered Clouds
4:55 PM 89.2 °F 92.4 °F 66.9 °F 48% 30.19 in 10.0 mi SSW 8.1 mph - N/A   Scattered Clouds
5:15 PM 90.0 °F 92.8 °F 66.7 °F 46% 30.19 in 10.0 mi SW 11.5 mph - N/A   Clear
5:35 PM 89.6 °F 92.2 °F 66.2 °F 46% 30.18 in 10.0 mi SW 9.2 mph - N/A   Clear
5:55 PM 89.2 °F 92.4 °F 67.1 °F 48% 30.18 in 10.0 mi SW 8.1 mph - N/A   Clear
6:15 PM 89.4 °F 92.3 °F 66.9 °F 47% 30.17 in 10.0 mi WSW 8.1 mph - N/A   Clear
6:35 PM 89.1 °F 91.7 °F 66.4 °F 47% 30.16 in 10.0 mi WSW 8.1 mph - N/A   Clear
6:55 PM 88.7 °F 91.9 °F 67.5 °F 49% 30.16 in 10.0 mi WSW 5.8 mph - N/A   Clear
7:15 PM 87.8 °F 90.7 °F 67.3 °F 50% 30.16 in 10.0 mi SW 8.1 mph - N/A   Clear
7:35 PM 86.9 °F 90.3 °F 68.0 °F 53% 30.16 in 10.0 mi SW 5.8 mph - N/A   Clear
7:55 PM 85.1 °F 88.5 °F 68.4 °F 57% 30.15 in 10.0 mi SW 4.6 mph - N/A   Clear
8:15 PM 83.7 °F 87.0 °F 68.5 °F 60% 30.15 in 10.0 mi SW 5.8 mph - N/A   Clear
8:35 PM 82.8 °F 86.0 °F 68.4 °F 62% 30.16 in 10.0 mi SSW 5.8 mph - N/A   Clear
8:55 PM 81.5 °F 84.6 °F 68.9 °F 65% 30.15 in 10.0 mi SSW 4.6 mph - N/A   Clear
9:15 PM 81.5 °F 84.6 °F 68.9 °F 65% 30.15 in 10.0 mi SSW 4.6 mph - N/A   Clear
9:35 PM 81.5 °F 84.6 °F 68.9 °F 65% 30.15 in 10.0 mi SSW 6.9 mph - N/A   Clear
9:55 PM 81.3 °F 84.5 °F 68.9 °F 66% 30.15 in 10.0 mi SSW 6.9 mph - N/A   Clear
10:15 PM 81.0 °F 83.9 °F 68.5 °F 66% 30.16 in 10.0 mi South 3.5 mph - N/A   Clear
10:35 PM 79.2 °F - 68.9 °F 71% 30.15 in 10.0 mi South 3.5 mph - N/A   Clear
10:55 PM 76.8 °F - 69.3 °F 77% 30.15 in 10.0 mi Calm Calm - N/A   Clear
11:15 PM 76.3 °F - 69.4 °F 79% 30.14 in 10.0 mi Calm Calm - N/A   Clear
11:35 PM 75.6 °F - 69.8 °F 82% 30.14 in 10.0 mi Calm Calm - N/A   Clear
11:55 PM 76.1 °F - 69.4 °F 80% 30.14 in 10.0 mi SSE 3.5 mph - N/A   Clear